When you browse on this site, cookies collect data to enhance your experience and personalize the content and advertising you see.
Visit our Privacy Policy to learn more. By continuing to use the site, you agree to this use of cookies and data.
  • In Norway
  • List of Countries
  • For 7 days
  • Water Temperature
  • Satellite Maps
  • Weather Map
  • Weather Widgets
  • user-avatar
    Login

    Hourly Weather Dobkowice

    Today, 18 December, Tuesday

    Time Temperature Precipitation Wind Pressure Humidity
    00:00 -3°C° 0 mm 1 mps 749 mmHg 90%
    01:00 -3°C° 0 mm 1 mps 749 mmHg 91%
    02:00 -3°C° 0 mm 1 mps 750 mmHg 92%
    03:00 -3°C° 0 mm 1 mps 750 mmHg 92%
    04:00 -3°C° 0 mm 1 mps 750 mmHg 93%
    05:00 -3°C° 0 mm 1 mps 750 mmHg 93%
    06:00 -3°C° 0 mm 1 mps 750 mmHg 93%
    07:00 -3°C° 0 mm 1 mps 750 mmHg 94%
    08:00 -4°C° 0 mm 0 mps 751 mmHg 94%
    09:00 -3°C° 0 mm 0 mps 751 mmHg 92%
    10:00 -2°C° 0 mm 0 mps 751 mmHg 90%
    11:00 -2°C° 0 mm 0 mps 751 mmHg 89%
    12:00 -1°C° 0 mm 0 mps 751 mmHg 88%
    13:00 -1°C° 0 mm 0 mps 751 mmHg 87%
    14:00 0°C° 0 mm 0 mps 751 mmHg 86%
    15:00 -1°C° 0 mm 0 mps 751 mmHg 88%
    16:00 -2°C° 0 mm 0 mps 751 mmHg 90%
    17:00 -3°C° 0 mm 0 mps 751 mmHg 92%
    18:00 -3°C° 0 mm 0 mps 752 mmHg 92%
    19:00 -3°C° 0 mm 0 mps 752 mmHg 92%
    20:00 -2°C° 0 mm 1 mps 752 mmHg 92%
    21:00 -3°C° 0 mm 1 mps 752 mmHg 93%
    22:00 -3°C° 0 mm 1 mps 752 mmHg 93%
    23:00 -3°C° 0 mm 1 mps 752 mmHg 93%

    Tomorrow, 19 December, Wednesday

    Time Temperature Precipitation Wind Pressure Humidity
    00:00 -4°C° 0 mm 1 mps 752 mmHg 93%
    01:00 -4°C° 0 mm 1 mps 752 mmHg 94%
    02:00 -4°C° 0 mm 1 mps 752 mmHg 94%
    03:00 -7°C° 0 mm 2 mps 752 mmHg 94%
    04:00 -7°C° 0 mm 2 mps 752 mmHg 94%
    05:00 -7°C° 0 mm 2 mps 751 mmHg 94%
    06:00 -7°C° 0 mm 2 mps 751 mmHg 93%
    07:00 -8°C° 0 mm 2 mps 751 mmHg 93%
    08:00 -8°C° 0 mm 2 mps 752 mmHg 92%
    09:00 -7°C° 0 mm 2 mps 752 mmHg 90%
    10:00 -7°C° 0 mm 3 mps 751 mmHg 87%
    11:00 -6°C° 0 mm 3 mps 751 mmHg 85%
    12:00 -6°C° 0 mm 3 mps 751 mmHg 84%
    13:00 -5°C° 0 mm 3 mps 751 mmHg 83%
    14:00 -4°C° 0 mm 3 mps 750 mmHg 82%
    15:00 -5°C° 0 mm 3 mps 750 mmHg 85%
    16:00 -6°C° 0 mm 3 mps 750 mmHg 88%
    17:00 -7°C° 0 mm 3 mps 750 mmHg 90%
    18:00 -7°C° 0 mm 3 mps 750 mmHg 90%
    19:00 -7°C° 0 mm 3 mps 750 mmHg 90%
    20:00 -7°C° 0 mm 3 mps 750 mmHg 90%
    21:00 -7°C° 0 mm 3 mps 749 mmHg 90%
    22:00 -7°C° 0 mm 3 mps 749 mmHg 89%
    23:00 -7°C° 0 mm 3 mps 749 mmHg 88%

    Day after tomorrow, 20 December, Thursday

    Time Temperature Precipitation Wind Pressure Humidity
    00:00 -7°C° 0 mm 3 mps 749 mmHg 87%
    01:00 -7°C° 0 mm 3 mps 749 mmHg 86%
    02:00 -7°C° 0 mm 3 mps 748 mmHg 85%
    03:00 -7°C° 0 mm 3 mps 748 mmHg 84%
    04:00 -7°C° 0 mm 3 mps 748 mmHg 83%
    05:00 -7°C° 0 mm 3 mps 748 mmHg 82%
    06:00 -7°C° 0 mm 3 mps 748 mmHg 81%
    07:00 -7°C° 0 mm 3 mps 747 mmHg 80%
    08:00 -7°C° 0 mm 3 mps 747 mmHg 79%
    09:00 -6°C° 0 mm 3 mps 747 mmHg 77%
    10:00 -5°C° 0 mm 3 mps 747 mmHg 75%
    11:00 -4°C° 0 mm 3 mps 747 mmHg 73%
    12:00 -2°C° 0 mm 3 mps 747 mmHg 73%
    13:00 -2°C° 0 mm 3 mps 747 mmHg 73%
    14:00 -1°C° 0 mm 3 mps 746 mmHg 74%
    15:00 -2°C° 0 mm 3 mps 746 mmHg 76%
    16:00 -2°C° 0 mm 3 mps 746 mmHg 78%
    17:00 -4°C° 0 mm 3 mps 746 mmHg 80%
    18:00 -4°C° 0 mm 3 mps 746 mmHg 81%
    19:00 -2°C° 0 mm 2 mps 746 mmHg 82%
    20:00 -2°C° 0 mm 2 mps 746 mmHg 84%
    21:00 -2°C° 0.2 mm 2 mps 746 mmHg 86%
    22:00 -2°C° 0.2 mm 3 mps 746 mmHg 88%
    23:00 -2°C° 0.2 mm 3 mps 746 mmHg 90%

    21 December, Friday

    Time Temperature Precipitation Wind Pressure Humidity
    00:00 -2°C° 0.2 mm 3 mps 746 mmHg 90%
    01:00 -2°C° 0.2 mm 3 mps 746 mmHg 90%
    02:00 -2°C° 0.2 mm 3 mps 746 mmHg 90%
    03:00 -2°C° 0.1 mm 3 mps 746 mmHg 90%
    04:00 -2°C° 0.1 mm 3 mps 746 mmHg 90%
    05:00 -2°C° 0.1 mm 3 mps 746 mmHg 90%
    06:00 -2°C° 0.2 mm 3 mps 746 mmHg 90%
    07:00 -1°C° 0.2 mm 3 mps 745 mmHg 91%
    08:00 -1°C° 0.2 mm 3 mps 745 mmHg 91%
    09:00 -1°C° 0.4 mm 3 mps 745 mmHg 91%
    10:00 -2°C° 0.4 mm 4 mps 746 mmHg 91%
    11:00 -2°C° 0.4 mm 4 mps 746 mmHg 91%
    12:00 -1°C° 0.2 mm 4 mps 745 mmHg 91%
    13:00 -1°C° 0.2 mm 4 mps 745 mmHg 91%
    14:00 -1°C° 0.2 mm 4 mps 745 mmHg 90%
    15:00 -1°C° 0 mm 4 mps 745 mmHg 90%
    16:00 -2°C° 0 mm 4 mps 744 mmHg 89%
    17:00 -2°C° 0 mm 4 mps 744 mmHg 88%
    18:00 -2°C° 0 mm 4 mps 744 mmHg 87%
    19:00 -2°C° 0 mm 4 mps 744 mmHg 86%
    20:00 -2°C° 0 mm 5 mps 744 mmHg 85%
    21:00 -1°C° 0.1 mm 5 mps 743 mmHg 85%
    22:00 -1°C° 0.1 mm 5 mps 742 mmHg 84%
    23:00 -1°C° 0.1 mm 6 mps 742 mmHg 84%

    22 December, Saturday

    Time Temperature Precipitation Wind Pressure Humidity
    00:00 -1°C° 0.5 mm 6 mps 741 mmHg 84%
    01:00 -1°C° 0.5 mm 7 mps 740 mmHg 84%
    02:00 -1°C° 0.5 mm 7 mps 739 mmHg 84%
    03:00 -1°C° 0.8 mm 7 mps 739 mmHg 85%
    04:00 -1°C° 0.8 mm 7 mps 738 mmHg 86%
    05:00 -1°C° 0.8 mm 7 mps 738 mmHg 87%
    06:00 0°C° 0.3 mm 7 mps 738 mmHg 87%
    07:00 0°C° 0.3 mm 7 mps 738 mmHg 88%
    08:00 0°C° 0.3 mm 8 mps 738 mmHg 88%
    09:00 0°C° 0.1 mm 7 mps 739 mmHg 89%
    10:00 0°C° 0.1 mm 7 mps 739 mmHg 89%
    11:00 +2°C° 0.1 mm 7 mps 740 mmHg 89%
    12:00 +2°C° 0 mm 6 mps 740 mmHg 89%
    13:00 +2°C° 0 mm 6 mps 740 mmHg 89%
    14:00 +2°C° 0 mm 5 mps 740 mmHg 88%
    15:00 +2°C° 0 mm 5 mps 740 mmHg 87%
    16:00 +1°C° 0 mm 5 mps 740 mmHg 86%
    17:00 +1°C° 0 mm 5 mps 739 mmHg 85%
    18:00 +1°C° 0.2 mm 6 mps 739 mmHg 86%
    19:00 +2°C° 0.2 mm 6 mps 739 mmHg 87%
    20:00 +2°C° 0.2 mm 7 mps 739 mmHg 88%
    21:00 +2°C° 0.2 mm 6 mps 738 mmHg 88%
    22:00 +2°C° 0.2 mm 6 mps 738 mmHg 88%
    23:00 +2°C° 0.2 mm 6 mps 738 mmHg 89%

    23 December, Sunday

    Time Temperature Precipitation Wind Pressure Humidity
    00:00 +2°C° 0.2 mm 6 mps 737 mmHg 89%
    01:00 +2°C° 0.2 mm 6 mps 737 mmHg 90%
    02:00 +2°C° 0.2 mm 6 mps 737 mmHg 90%
    03:00 +2°C° 0.3 mm 6 mps 738 mmHg 90%
    04:00 +2°C° 0.3 mm 6 mps 738 mmHg 91%
    05:00 +2°C° 0.3 mm 6 mps 738 mmHg 91%
    06:00 +2°C° 0.6 mm 6 mps 738 mmHg 91%
    07:00 +2°C° 0.6 mm 6 mps 739 mmHg 90%
    08:00 +2°C° 0.6 mm 7 mps 740 mmHg 90%
    09:00 +2°C° 0.1 mm 7 mps 740 mmHg 90%
    10:00 +2°C° 0.1 mm 6 mps 741 mmHg 89%
    11:00 +2°C° 0.1 mm 6 mps 741 mmHg 89%
    12:00 +2°C° 0 mm 6 mps 741 mmHg 87%
    13:00 +2°C° 0 mm 6 mps 742 mmHg 86%
    14:00 +2°C° 0 mm 6 mps 742 mmHg 84%
    15:00 +2°C° 0.1 mm 6 mps 742 mmHg 85%
    16:00 +2°C° 0.1 mm 5 mps 742 mmHg 85%
    17:00 +1°C° 0.1 mm 5 mps 742 mmHg 85%
    18:00 +1°C° 0.3 mm 6 mps 742 mmHg 85%
    19:00 +1°C° 0.3 mm 6 mps 742 mmHg 85%
    20:00 +2°C° 0.3 mm 6 mps 743 mmHg 84%
    21:00 +2°C° 0.3 mm 7 mps 743 mmHg 85%
    22:00 +2°C° 0.3 mm 7 mps 743 mmHg 85%
    23:00 +2°C° 0.3 mm 7 mps 743 mmHg 86%
    Show more